Meath Environmental Platform

Observations for Trim Patrick St

Time AQI Temp °C Hum % Pres Pa CO μg/m³ H₂S μg/m³ NO μg/m³ NO₂ μg/m³ O₃ μg/m³ SO₂ μg/m³ PM1 μg/m³ PM2.5 μg/m³ PM10 μg/m³
Thursday 27 August 2026
08:13 2 18.1 85 38,460 0.17 0.22 2.45 28.55 24.07 0 24.29 33.9 35.84
08:12 2 18.1 84 38,460 0.2 0.98 1.85 37.31 23.44 0 26 36.69 39.21
08:11 2 18.1 85 38,460 0.16 0 1.58 21.76 29.97 0 25.14 35.95 38.43
08:10 2 18.1 85 38,460 0.15 0.56 1.12 18.26 28.88 0 24.29 33.85 35.07
08:09 2 18.1 85 38,460 0.16 0.5 1.21 23.75 29.58 0 24.29 35.26 37.77
08:08 2 18.1 84 38,460 0.15 0.4 1.23 24.59 33.88 0 26 36.05 38.67
08:07 2 18.1 85 38,460 0.17 0 1.14 14.61 34.55 0 23.43 33.85 34.42
08:06 2 18.1 85 38,460 0.17 0.16 1.16 22.06 34.53 0 21.72 32.47 35.07
08:05 2 18.1 85 38,460 0.16 0 1.29 14.66 31.99 0 24.29 33.82 35.65
08:04 2 18.1 85 38,460 0.17 0 1.2 16.16 35.67 0 25.14 34.51 36.96
08:03 2 18.1 85 38,460 0.16 0 1.34 19.2 25.64 0 23.43 35.2 36.96
08:02 2 18.1 85 38,460 0.15 0 1.04 11.88 34.88 0 22.57 34.51 36.31
08:01 2 18.1 85 38,460 0.16 0 1.01 12.92 34.45 0 21.72 33.84 35.03
08:00 2 18.1 85 38,460 0.17 0.32 0.78 22.8 36.84 0 26 36.63 39.7
07:59 2 18.1 85 38,460 0.16 0 0.86 21.17 30.93 0 26 35.89 38.27
07:58 2 18 85 38,460 0.17 0 0.76 14.25 30.53 0 24.29 33.82 36.31
07:57 2 18 85 38,460 0.17 0 1.08 15.98 25.8 0 25.14 34.51 38.92
07:56 2 18 85 38,460 0.17 0 1.17 12.38 37.12 0 25.14 34.51 37.61
07:55 2 18 85 38,460 0.17 0 1.48 14.28 28.91 0 25.14 35.19 37.57
07:53 2 18 85 38,460 0.2 0 1.48 13.3 34.28 0 25.14 35.17 38.19